TITAN 3C TRANSTAGE DEB, 47713

Orbit data source: Space-Track

TITAN 3C TRANSTAGE DEB, 47713 is space debris in HEO originally from a launch on Tue, 21 Dec 1965 UTC launched from the Air Force Eastern Test Range (AFETR). Debris objects in space refer to the collection of defunct objects orbiting the Earth. Examples of debris include non-operational satellites, rocket bodies, and fragments generated from explosions, collisions, or faulty payload assembly.

Loading next visibility...
Identifier
47713, 1965-108DS
Orbit
HEO
Country
Flag of USUS
Related business
Manufacturer
Unknown
Mission
Spacecraft
Bus & Motor
Unknown
Mass
Unknown
Launch date (UTC)
1965-12-21 (60 years ago)
Launch vehicle
Unknown
Launch site
Air Force Eastern Test Range (AFETR)
Object type
Payload
Rocket body
Debris
Shape & HBR
Unknown shape, 0.1 m
Radar Cross Section
Medium (>0.1 m² and <1 m²)

Expand to show TLE details & history
Last TLE update: 1 week ago

TLE from 1 week ago
0 TITAN 3C TRANSTAGE DEB
1 47713U 65108DS  26151.76305554  .00000283  00000-0  10949-2 0  9990
2 47713  26.9840 313.6034 5508155 189.5150 153.0018  4.52298201206561
Epoch: 2026-05-31T18:18Z
TLE epoch observation values (Epoch: 2026-05-31T18:18:47.998Z)
Latitude
-0.00004°
Longitude
149.63475°
Altitude
17,170.629 km
Speed
2.837 km/s
True Right ascension
20h 54m 22s
True Declination
0° 00' 00"
Sunlit
Object was in daylight at epoch
Visualization orbit readout
Latitude
Unknown
Longitude
Unknown
Altitude
Unknown
Speed
Unknown
Apparent Right ascension
Unknown
Apparent Declination
Unknown
Sunlit
N/A
Visualization observer readout
Local Sidereal Time
19:02:57
Azimuth
Unknown
Elevation
Unknown
Doppler factor
Unknown
Orbital elements
Apogee altitude
17,579.335 km
Perigee altitude
561.003 km
Semi-major axis
15,448.306 km
Eccentricity
0.55082
Inclination
26.984°
RAAN
313.6034°
Arg. of periapsis
189.515°
True anomaly
170.52655°
Mean anomaly
153.0018°
Eccentric anomaly
162.49469°
Mean motion
1.13037 °/min
Orbital period
318.48 mins
BSTAR
0.0010949
Loading maneuver chart data...
Computing Atmospheric mass density...

Documentation

Showing up to 5 results
|